リニア彗星

187P/LINEAR (2018)

English version
Home page
Updated on May 22, 2017

---------------------------------------------------------------------

・ プロフィール

・ 軌道要素

Epoch 2018 June 11.0 TT = JDT 2458280.5
T 2018 May 26.55513 TT                                  MPCW
q   3.8806849            (2000.0)            P               Q
n   0.09996008     Peri.  133.24606     -0.43127717     +0.87472775
a   4.5981695      Node   109.97959     -0.88085414     -0.35523654
e   0.1560370      Incl.   13.60210     -0.19518192     -0.32963368
P   9.86
From 160 observations 1999 May 12-2017 Apr. 28, mean residual 0".7.

・ 光度変化

        m1 = 3.5 + 5 logΔ + 20.0 log r

---------------------------------------------------------------------

軌道要素はM.P.E.C. 2017-J52に掲載されたものです。
光度グラフはComet for Windowsで作成したものです。

---------------------------------------------------------------------

Copyright(C) Seiichi Yoshida (comet@aerith.net). All rights reserved.